Regional Weather Roundup
Issued by NWS Upton, NY

Current Version | Previous Version | Graphics & Text | Print | Product List | Glossary Off
Versions: 1 2 3 4 5 6 7 8 9 10 11 12 13 14 15 16 17 18 19 20 21 22 23 24 25 26 27 28 29 30 31 32 33 34 35 36 37 38 39 40 41 42 43 44 45 46 47 48 49 50

244
ASUS41 KOKX 072308
RWROKX

REGIONAL WEATHER ROUNDUP
NATIONAL WEATHER SERVICE NEW YORK NY
600 PM EST WED DEC 07 2016

NOTE: "FAIR" INDICATES FEW OR NO CLOUDS BELOW 12,000 FEET WITH NO
SIGNIFICANT WEATHER AND/OR OBSTRUCTIONS TO VISIBILITY.

NYZ071-072-176-178-NJZ106-104-080000-
NEW YORK CITY METRO AREA

CITY           SKY/WX    TMP DP  RH WIND       PRES   REMARKS
Central Park   MOCLDY    45  34  65 CALM      30.05R
Wall St Helipt CLOUDY    46  37  71 NE8       30.04S
Bronx Bot Gard NOT AVBL
LaGuardia APRT CLOUDY    47  35  63 N8        30.03R
Kennedy INTL   MOCLDY    47  37  68 N7        30.04R
Breezy Point     N/A     45 N/A N/A N2          N/A
Newark/Liberty CLOUDY    46  36  68 N6        30.03R
Teterboro      MOCLDY    45  33  63 NW5       30.03R
$$

NYZ177-179-078>081-080000-
LONG ISLAND NEW YORK

CITY           SKY/WX    TMP DP  RH WIND       PRES   REMARKS
Jones Beach      N/A     45 N/A N/A NW5         N/A
Matinecock PT    N/A     45 N/A N/A W14         N/A
Farmingdale    CLOUDY    44  39  82 N3        30.04R
MacArthur/ISP  CLOUDY    44  38  79 W8        30.03R
Shirley        CLOUDY    43  39  86 W5        30.04R
Westhampton    CLOUDY    43  39  86 W6        30.04R
Southampton    NOT AVBL
Bridgehampton  NOT AVBL
East Hampton   CLOUDY    42  39  88 CALM      30.02R
Montauk          N/A     45  41  86 W7        30.03R
$$

NYZ052-065-067-080000-
HUDSON VALLEY

CITY           SKY/WX    TMP DP  RH WIND       PRES   REMARKS
White Plains   PTCLDY    39  34  82 W3        30.02R
Newburgh       PTCLDY    36  36 100 W7        30.02R WCI  30
Montgomery     CLEAR     33  32  96 SW5       30.01R WCI  29
Poughkeepsie   CLEAR     35  35 100 CALM      30.02R
Albany         MOCLDY    33  32  96 S3        30.02R
$$

NJZ001-105-106-008-010-013-015-019>022-104-080000-
NEW JERSEY

CITY           SKY/WX    TMP DP  RH WIND       PRES   REMARKS
Newark/Liberty CLOUDY    46  36  68 N6        30.03R
Teterboro      MOCLDY    45  33  63 NW5       30.03R
Caldwell       CLOUDY    43  36  76 CALM      30.04R
Somerville     CLOUDY    40  35  83 CALM      30.02S
Linden           N/A     45  36  71 NW5       30.04S
Sussex         MOCLDY    35  34  96 W3        30.03R
Andover          N/A     37  35  92 CALM      30.02R
Trenton        PTCLDY    42  35  76 CALM      30.04R
Millville      CLEAR     36  36 100 CALM      30.07R
Atlantic City  PTCLDY    41  36  82 CALM      30.06R
Wrightstown    CLEAR     37  35  89 CALM      30.03R
Toms River     PTCLDY    42  40  92 CALM      30.06R
Belmar         CLOUDY    42  40  92 CALM      30.05S
$$

PAZ047>061-062-071-080000-
EASTERN PENNSYLVANIA

CITY           SKY/WX    TMP DP  RH WIND       PRES   REMARKS
Philadelphia   PTCLDY    45  34  65 W7        30.06R
Allentown      PTCLDY    42  29  59 W5        30.04R
Scranton       CLOUDY    40  31  70 SW5       30.00S
$$

CTZ002-004>006-009-010-012-RIZ004-006-007-MAZ004-011-015-080000-
SOUTHERN NEW ENGLAND
 IN CT

CITY           SKY/WX    TMP DP  RH WIND       PRES   REMARKS
Bradley INTL   MOCLDY    41  36  82 W5        30.02R
Hartford       CLOUDY    43  37  79 W3        30.03R
Danbury        CLOUDY    39  36  89 W6        30.03R WCI  35
Wtrbury/Oxford CLOUDY    39  34  81 CALM      30.02R
Bridgeport     NOT AVBL
Meriden        CLOUDY    43  37  79 NW3       30.02R
New Haven      CLOUDY    43  37  79 NW5       30.02R
Chester        CLOUDY    41  37  87 CALM      30.02R
Groton         CLOUDY    47  41  80 NW8       30.02R
Wilimantic     CLOUDY    43  37  79 W3        30.02R

 IN RI

CITY           SKY/WX    TMP DP  RH WIND       PRES   REMARKS
Providence     CLOUDY    42  37  82 CALM      30.01R
Block Island   CLOUDY    43  40  89 W3        30.01R
Westerly       CLOUDY    45  38  76 VRB3      30.02R
 IN MA

CITY           SKY/WX    TMP DP  RH WIND       PRES   REMARKS
Boston         CLOUDY    41  39  93 CALM      30.01R
Worcester      MOCLDY    35  33  92 W8        29.97R WCI  29
Westfield      FOG       35  35 100 CALM      30.01R VSB 3/4
Provincetown   CLOUDY    43  38  82 NW6       30.00R
Nantucket      CLOUDY    44  40  85 NW7       29.99R
$$

ANZ330-335-338-340-345-350-353-355-080000-
COASTAL MARINE OBSERVATIONS


STATION/POSITION TIME  SKY/WX   TEMP    WIND        PRES    VSBY  WAVE
                                AIR SEA DIR/SP/G                  HT/PER
                 (UTC)          (F)     (DEG/KT/KT) (MB)    (MI)  (FT/S)
NY HARB ENTRANCE 2250            47 53  280/ 10/ 14 1017.0          5/ 9
20 S FIRE ISLAND 2250            47 54  320/ 10/ 14 1016.8          6/10
GREAT SOUTH BAY  2215            44 43                N/A
23 SSW MONTAUK P 2250            47 54  300/ 10/ 12 1016.8          5/ 8
15 E BARNEGAT LI 2230               53                N/A           6/11
HUDSON CANYON    2150            50 56              1015.3          8/ 9
KINGS POINT      2230            45 48              1017.0
EXECUTION ROCKS  2245            45     310/  6/  8   N/A
CENTRAL LI SOUND 2245            45 50  290/ 10/ 14   N/A           1
EASTERN LI SOUND NOT AVBL
ROBBINS REEF     2230            46     340/  7/  9 1017.2
$$


>>>>>>>>>>>>>>>>>>>>>>>>>>>> KEY <<<<<<<<<<<<<<<<<<<<<<<<<<<
>                                                          <
>     SKY/WX - Sky Condition/Present Weather               <
>     TMP    - Temperature in Fahrenheit                   <
>     DP     - Dew Point in Fahrenheit                     <
>     RH     - Relative Humidity in Percent                <
>     WIND   - Direction (from) and Speed in MPH           <
>     PRES   - Mean Sea Level Pressure (inches of Hg)      <
>     WCI    - Wind Chill Index                            <
>     VSB    - VISIBILITY IN MILES                         <
>     HX     - HEAT INDEX                                  <
>     TC     - TEMPERATURE IN CELSIUS                      <
>     VRB    - VARIABLE WIND DIRECTION                     <
>                                                          <
>>>>>>>>>>>>>>>>>>>>>>>>>>>> KEY <<<<<<<<<<<<<<<<<<<<<<<<<<<




USA.gov is the U.S. government's official web portal to all federal, state and local government web resources and services.